Location: Pallagorio
(39.3000°N, 16.9000°E)
Time: 02:11:08
(UTC+00:00)

Cosmos 1758 Rocket - Pass Details

Date: 24 January 2021
Orbit: 601 x 637 km, 82.5° (Epoch: 08 March)

Event Time Altitude Azimuth Distance (km) Brightness Sun altitude
Rises 17:36:46 0° 182° (S) 2,887 7.2 -18.0°
Reaches altitude 10° 17:38:59 10° 181° (S) 1,991 6.3 -18.4°
Maximum altitude 17:43:23 76° 96° (E) 652 3.4 -19.2°
Enters shadow 17:47:33 12° 11° (N) 1,896 5.8 -20.0°
